Tracking 31027 objects as of 19-Jul-2025
HD Live streaming from Space Station
objects crossing your sky now

STARLINK-30186

Track STARLINK-30186 now!
10-day predictions
STARLINK-30186 is classified as:


NORAD ID: 57470
Int'l Code: 2023-107P
Perigee: 565.4 km
Apogee: 567.0 km
Inclination: 43.0 °
Period: 95.8 minutes
Semi major axis: 6937 km
RCS: Unknown
Launch date: July 28, 2023
Source: (TBD)
Launch site: AIR FORCE EASTERN TEST RANGE (AFETR)
Your satellite tracking list
SES-6
Track 1 satellite(s)




NASA's NSSDC Master Catalog

Two Line Element Set (TLE):
1 57470U 23107P   25199.60997856  .00000150  00000-0  26211-4 0  9994
2 57470  43.0031 170.7260 0001156 288.3747  71.6969 15.02535092109685
Source of the keplerian elements: AFSPC